Notices

What's New in latest Release from April 7th, 2021:

- Updated Glossary, including Speed of Maximum Gust, and Total Hourly Precipitation

- Updated national and regional climate services offices contacts and prices information

- Addition of station inventory lists for 1981-2010, 1971-2000, and 1961-1990 Normals.

If you haven't already, please take our survey and provide feedback about our website: https://eccc.sondage-survey.ca/f/LanguageSelection.aspx?s=442ca660-fcf1-47c0-95a9-59707d6fd709

Hourly Data Report for December 16, 2016

CARBERRY CS
MANITOBA

49°54'20.900" N
99°21'26.800" W
383.50 m
5010547
71170
WZE

Download Data

Hourly Data (December 2016)
Hourly Data Report for December 16, 2016
TIME
LST
Temp Definition
°C
Dew Point Definition
°C
Rel Hum Definition
%
Precip. Amount Definition
mm

Wind Dir Definition
10's deg

Wind Spd Definition
km/h
Visibility Definition
km
Stn Press Definition
kPa
Hmdx Definition


Wind Chill Definition


Weather Definition


00:00 -22.0 -24.9 77 0.0 25 11   97.20   -30 LegendNANA
01:00 -23.5 -26.4 77 0.0 26 11   97.20   -32 LegendNANA
02:00 -24.9 -28.0 76 0.0 25 10   97.21   -33 LegendNANA
03:00 -26.1 -29.1 76 0.0 28 8   97.24   -33 LegendNANA
04:00 -24.8 -27.6 78 0.0 31 11   97.22   -33 LegendNANA
05:00 -24.3 -27.6 74 0.0 31 11   97.19   -33 LegendNANA
06:00 -27.9 -31.1 74 0.0 28 11   97.18   -37 LegendNANA
07:00 -26.7 -29.4 78 0.0 27 9   97.19   -35 LegendNANA
08:00 -27.0 -29.9 76 0.0 25 8   97.21   -34 LegendNANA
09:00 -26.8 -29.7 76 0.0 23 3   97.21   -30 LegendNANA
10:00 -25.9 -29.4 72 0.0 30 12   97.21   -35 LegendNANA
11:00 -24.6 -28.5 70 0.5 28 14   97.24   -34 LegendNANA
12:00 -22.7 -27.8 63 0.0 30 17   97.14   -33 LegendNANA
13:00 -22.4 -27.6 63 0.0 27 13   97.14   -31 LegendNANA
14:00 -21.6 -27.3 60 0.0 29 17   97.17   -32 LegendNANA
15:00 -21.5 -27.0 61 0.0 28 16   97.20   -31 LegendNANA
16:00 -22.1 -27.4 62 0.0 28 18   97.18   -33 LegendNANA
17:00 -23.8 -27.8 69 0.0 28 18   97.13   -35 LegendNANA
18:00 -25.0 -29.1 68 0.0 28 14   97.19   -35 LegendNANA
19:00 -27.0 -31.1 68 0.0 28 8   97.25   -34 LegendNANA
20:00 -28.0 -31.9 69 0.0 28 12   97.26   -38 LegendNANA
21:00 -28.7 -32.2 72 0.0 29 11   97.25   -38 LegendNANA
22:00 -29.6 -32.5 76 0.0 29 8   97.29   -38 LegendNANA
23:00 -32.3 -35.6 72 0.0 27 10   97.36   -42 LegendNANA

Notes on Data Quality.

Legend

  • E = Estimated
  • M = Missing
  • NA = Not Available*
  • [empty] = Indicates an unobserved value
Date modified: